Wind_Speed
13 13 13 15 16 16 17 17 17 16 16 17 17 16 16 16 17 17 17 17 15 12 9 9 9 10 13 14 16 17 17 17 16 15 14 14 14 14 13 12 12 12 12 10 10 11 11 10 10 10 9 10 10 11 12 12 13 14 14 13 12 10 9 9 9 9 8 8 8 7 6 5 5 5 5 5 5 4 4 5 4 4 4 5 6
14 14 14 15 16 16 16 16 17 17 17 17 16 16 15 15 16 16 17 17 17 16 13 12 12 12 13 15 16 18 18 18 17 15 13 13 14 14 13 11 10 10 10 10 9 9 10 10 9 8 8 9 9 11 12 13 14 14 14 13 10 9 9 8 8 8 8 7 7 6 6 5 6 5 5 4 4 4 4 3 3 4 4 4 5
15 16 16 15 15 15 16 16 18 18 17 16 16 16 16 16 16 17 17 18 17 17 16 15 15 14 14 15 17 19 20 20 18 16 14 13 13 13 13 10 8 8 8 8 8 7 8 9 8 7 7 7 8 10 12 13 14 14 13 11 10 9 8 8 8 8 7 7 7 6 6 6 6 5 5 4 4 4 3 3 3 3 4 4 5
16 16 16 16 15 15 16 17 19 18 16 16 17 17 17 16 18 18 18 19 17 16 17 17 17 17 15 16 17 20 22 22 20 17 15 15 14 14 13 11 8 7 7 8 7 6 7 8 8 6 6 7 8 10 12 13 13 13 12 11 10 9 9 8 8 8 7 7 6 6 6 6 6 5 5 4 4 3 3 3 2 3 4 4 5
17 18 17 17 16 16 17 18 19 18 17 16 17 17 17 17 18 18 19 20 18 16 15 16 18 18 17 16 17 21 23 23 22 19 17 17 17 16 15 12 9 8 8 8 7 6 6 7 7 7 6 7 9 11 12 13 13 12 12 11 10 10 9 9 8 7 7 6 6 6 6 6 6 5 5 4 4 3 3 3 3 4 4 5 5
18 19 19 18 17 17 17 19 20 19 18 18 19 19 19 19 18 19 20 21 20 17 15 15 17 18 18 17 17 20 23 24 23 21 20 20 19 19 17 14 12 11 10 8 7 7 7 8 8 8 8 8 9 11 13 14 14 13 12 11 10 10 10 9 8 7 7 6 6 6 6 6 6 5 4 4 3 3 3 3 4 5 5 5 5
19 19 19 18 17 17 18 20 20 21 21 21 21 21 21 21 20 20 21 22 21 20 17 15 16 17 18 18 17 19 22 24 24 23 23 22 21 20 19 17 15 13 12 9 7 8 8 10 10 10 9 9 10 12 13 14 14 13 11 10 10 10 10 9 8 7 7 7 6 6 6 6 6 5 4 4 4 4 4 5 5 5 5 5 5
19 19 19 18 17 17 19 20 21 22 22 21 20 20 20 21 21 20 21 22 22 21 19 17 18 18 18 18 18 18 21 23 24 24 25 24 23 21 20 20 18 16 14 11 9 9 9 11 12 11 10 10 11 12 13 13 13 12 11 10 10 11 10 9 8 7 7 7 6 6 6 6 5 5 4 4 4 4 4 5 5 5 5 6 6
19 19 19 18 18 18 19 21 22 21 20 19 20 21 21 21 22 22 21 22 22 21 21 20 20 20 20 19 19 19 21 22 24 24 25 26 26 23 22 22 21 19 16 13 11 10 10 11 13 13 11 10 11 12 13 12 11 11 10 10 10 10 10 9 8 7 7 7 7 7 6 6 5 5 5 4 4 4 4 5 5 5 5 6 6
20 20 20 19 18 18 20 21 20 19 19 20 22 23 24 23 23 23 23 23 22 21 21 21 20 20 21 21 20 21 21 22 24 25 26 27 27 26 24 23 23 20 17 15 13 12 12 12 13 14 13 11 11 12 12 11 11 10 10 10 10 10 9 9 8 8 8 7 7 7 7 6 6 5 5 4 4 4 4 4 5 5 5 6 6
21 21 21 20 19 19 20 20 19 20 21 22 23 24 25 25 25 25 25 25 24 22 21 21 21 21 22 23 22 21 21 21 24 26 27 28 27 25 24 25 24 21 18 17 14 13 14 13 14 14 14 12 12 12 12 11 10 10 10 10 11 11 9 9 8 8 8 8 7 7 7 6 6 6 5 5 5 5 5 5 5 6 6 6 6
22 21 21 20 19 19 19 19 20 22 23 23 24 24 25 25 25 26 25 25 25 24 22 21 22 22 22 24 24 22 21 21 23 26 28 28 27 26 26 26 26 22 19 18 16 15 15 15 14 15 14 13 12 12 12 12 10 10 10 11 11 11 10 9 8 8 8 8 8 7 7 7 7 6 6 6 6 6 5 5 6 6 7 7 6
23 22 22 21 20 20 20 20 22 23 23 25 25 25 25 24 24 25 26 26 26 25 24 23 23 23 23 24 26 25 22 21 23 25 27 28 28 28 28 27 27 24 21 19 19 18 17 16 15 15 15 14 13 13 13 12 11 10 11 11 11 11 11 10 9 8 8 8 8 8 8 8 8 7 7 7 7 7 6 6 6 7 7 7 7
23 23 22 21 21 20 20 20 22 23 25 26 26 26 26 24 23 24 26 27 27 27 25 25 25 23 24 25 26 26 25 22 23 24 27 30 29 29 30 29 29 26 23 22 22 21 19 18 16 15 16 15 14 14 14 13 11 10 11 11 11 11 11 10 9 9 8 8 8 8 8 9 9 8 8 8 9 8 8 7 7 8 8 8 8
24 24 23 22 21 20 20 21 22 24 25 25 26 27 27 26 24 25 26 27 28 28 27 27 26 25 26 27 26 26 26 24 24 25 27 30 30 29 30 31 31 27 24 23 24 23 22 20 18 16 16 17 16 15 15 14 12 11 11 11 12 12 12 11 10 9 9 9 9 9 9 10 10 9 10 10 10 9 9 9 9 9 9 9 9
25 25 24 23 22 21 20 21 23 24 25 25 27 27 27 27 26 25 26 27 29 30 30 28 28 28 29 28 28 28 27 26 26 26 28 28 29 30 30 32 32 29 26 25 23 23 23 22 19 17 17 18 17 16 16 15 13 12 12 12 12 12 13 13 11 10 10 11 11 11 11 10 10 10 11 11 11 11 11 10 10 10 10 10 10
25 25 24 24 23 22 21 22 23 24 25 26 27 28 28 28 27 27 27 28 29 30 32 31 29 30 31 29 29 29 28 28 28 27 28 28 29 30 30 32 33 32 29 25 23 24 24 23 20 18 19 19 19 18 17 16 14 14 13 13 13 14 14 14 13 12 12 12 12 12 12 12 12 12 12 12 13 13 12 12 11 11 11 11 11
25 25 24 24 23 23 23 23 25 26 27 27 28 29 29 29 28 28 28 30 30 30 32 33 31 30 32 31 29 29 30 30 28 27 28 29 28 29 30 32 32 32 31 27 25 26 25 23 21 19 20 20 20 19 18 16 15 15 14 14 15 15 15 15 14 13 13 13 14 13 13 13 13 13 13 13 14 13 13 13 12 12 12 12 12
25 24 24 24 24 23 24 24 26 27 28 28 29 30 30 30 30 30 30 31 31 30 31 33 32 31 32 32 30 29 30 30 28 27 28 28 29 30 30 31 31 31 31 29 28 27 25 23 22 20 21 21 21 20 19 18 17 16 16 16 16 16 16 16 15 15 15 15 15 15 15 15 15 14 15 15 15 14 14 13 13 13 13 13 13
25 25 24 24 24 24 24 25 27 28 29 30 31 31 32 32 33 33 32 33 33 32 31 32 32 32 32 32 30 29 29 30 28 27 28 28 29 31 32 32 31 30 30 30 28 27 25 25 23 22 22 22 21 21 20 19 18 18 17 17 18 18 17 17 17 17 17 17 17 17 17 16 16 16 16 16 15 15 14 14 14 14 14 14 14
24 24 24 24 23 24 24 26 27 28 30 31 32 33 34 35 36 36 35 35 36 34 32 31 31 31 32 32 31 29 29 30 30 28 28 29 29 29 31 32 31 30 31 31 29 27 26 25 25 24 23 23 23 22 22 21 20 19 18 18 19 19 18 18 18 18 18 19 19 19 19 18 18 18 17 17 16 16 16 15 15 14 14 15 15
23 23 24 23 23 23 24 25 27 28 30 31 32 34 35 36 37 38 38 38 37 36 33 31 30 31 32 32 31 29 28 30 32 31 28 27 27 27 27 28 28 30 33 32 30 29 29 27 27 26 25 24 23 23 22 21 20 20 19 19 20 19 19 19 19 20 19 20 20 20 20 20 20 19 19 18 17 17 17 16 15 15 15 15 15
24 24 24 23 23 23 24 25 27 28 30 31 33 33 34 36 37 39 40 40 40 38 35 33 31 30 30 31 31 30 29 29 32 32 28 26 27 28 30 29 28 30 33 33 32 31 30 29 27 26 25 24 24 23 23 22 21 21 20 20 21 20 20 20 20 21 21 21 21 21 21 21 21 20 21 20 19 18 17 16 16 15 16 16 16
23 24 24 23 23 23 24 26 27 28 30 31 32 33 34 36 37 38 40 40 40 39 36 34 32 30 29 30 30 29 29 29 31 32 29 26 27 29 32 31 29 30 32 33 32 32 31 29 27 26 26 25 25 24 23 22 22 22 21 21 22 21 21 21 21 22 22 22 22 21 22 22 22 22 22 20 18 17 16 16 16 16 16 16 17
23 23 23 23 23 23 24 26 27 28 29 31 32 32 34 36 37 38 39 39 38 37 35 34 32 30 29 30 29 29 29 29 30 31 29 29 30 30 31 32 30 29 32 34 33 33 32 30 28 27 27 26 26 25 24 23 23 22 22 22 22 23 22 22 22 22 22 22 22 22 22 23 24 24 23 20 18 17 17 17 17 16 17 17 18
24 23 23 23 23 23 24 25 26 27 28 30 31 32 34 36 37 39 38 36 35 34 33 32 30 29 29 29 28 28 28 28 29 31 30 28 30 33 32 33 34 32 32 35 34 33 30 29 28 27 27 27 26 26 25 24 24 23 23 23 23 24 24 23 23 23 23 23 23 23 23 24 25 25 25 23 20 18 18 18 18 17 18 18 19
25 24 23 23 23 24 25 25 26 26 28 29 30 32 34 36 37 38 36 34 32 32 31 28 26 26 26 26 26 26 27 27 27 29 30 27 28 34 35 34 35 33 32 34 35 32 30 30 29 28 28 28 27 26 26 25 25 24 24 24 25 25 24 24 23 23 23 23 24 24 24 25 25 25 26 24 21 19 19 19 19 19 19 20 21
26 25 24 23 23 24 25 25 26 27 28 29 30 31 33 36 37 36 34 32 30 30 28 25 23 23 22 23 25 25 24 24 25 26 27 26 26 32 37 35 34 33 32 33 33 31 31 31 30 29 30 29 28 28 27 26 26 25 25 26 26 26 25 24 24 24 24 24 24 25 25 26 26 26 26 24 22 21 21 20 21 21 21 21 22
27 26 25 24 23 24 24 25 26 27 28 29 30 31 33 35 35 34 32 30 29 27 25 22 20 19 20 22 22 21 21 21 22 23 24 24 25 30 35 34 32 33 33 32 32 32 33 33 31 31 31 31 31 30 28 28 28 27 27 27 27 26 26 25 25 24 24 24 25 25 26 26 26 26 26 25 24 23 22 22 22 22 22 22 22
27 26 25 24 24 24 24 25 25 26 28 29 29 30 31 33 33 31 29 27 26 23 21 19 17 16 17 19 19 17 17 18 20 20 20 23 25 28 32 32 29 32 34 33 33 34 35 33 32 32 32 32 32 30 28 28 28 28 27 27 27 27 26 26 25 25 25 25 25 25 26 27 27 27 26 26 25 24 24 23 23 24 24 23 23
27 26 25 25 24 24 24 24 25 26 27 29 29 29 29 31 30 29 27 24 22 20 18 16 14 14 15 17 16 14 15 15 16 17 18 22 23 24 29 29 28 34 36 34 33 35 35 34 32 33 33 33 31 29 28 27 27 28 28 27 27 27 26 26 27 26 26 26 26 26 26 27 27 27 26 26 25 25 26 25 25 26 25 25 24
27 25 25 24 24 24 25 25 24 25 27 28 29 28 28 29 29 27 25 22 19 18 16 14 13 13 15 15 15 14 13 14 14 15 17 22 23 22 24 23 25 32 35 34 35 37 36 35 34 34 34 32 30 29 27 26 27 29 30 29 27 25 26 28 28 28 28 27 27 26 27 28 28 27 27 26 26 26 27 27 27 27 26 26 26
27 25 24 24 24 24 24 24 24 25 26 28 28 28 27 28 27 26 24 21 17 16 15 15 14 14 15 15 15 13 13 14 14 14 14 18 23 24 23 21 21 26 31 34 36 36 36 35 34 34 33 32 30 29 27 26 28 30 30 29 26 24 26 30 29 28 28 27 27 27 27 28 28 28 27 27 26 27 29 29 29 28 27 27 27
26 24 24 23 23 23 23 23 23 24 26 27 28 27 26 27 26 25 23 20 17 16 17 17 16 15 15 15 14 13 13 15 14 13 12 14 20 24 25 24 23 25 30 34 35 36 36 35 33 33 33 32 31 30 28 28 29 31 31 30 28 26 28 31 30 28 28 28 27 28 27 28 29 29 28 27 27 28 30 31 30 29 29 29 29
25 23 23 23 23 22 23 23 23 24 25 26 27 27 26 26 25 24 22 20 19 19 19 20 18 16 16 15 15 14 14 16 15 14 13 13 16 22 26 28 28 28 29 31 33 35 36 34 33 33 33 33 32 31 29 28 30 32 31 30 30 29 30 31 31 30 30 29 29 29 28 28 29 29 29 28 28 30 31 32 31 30 30 30 30
24 23 22 22 22 22 22 22 23 23 24 25 26 26 26 26 25 24 22 21 21 21 21 21 21 19 18 16 16 16 16 17 17 15 15 14 15 18 22 27 31 32 32 30 31 35 36 34 33 33 34 34 32 31 29 28 31 33 31 30 30 29 30 31 31 32 32 31 30 30 30 29 29 29 29 29 30 31 32 33 32 32 31 31 31
24 23 22 22 22 22 22 22 23 23 23 24 25 26 26 25 25 25 23 21 21 21 21 21 21 21 19 17 16 17 17 18 18 17 17 16 17 18 21 24 28 30 31 31 31 33 34 33 32 33 35 33 32 31 30 30 32 33 32 32 32 31 31 32 32 33 34 33 32 31 31 30 31 30 30 30 31 32 33 33 33 32 32 31 31
23 22 22 22 22 22 21 22 22 22 23 23 24 25 25 25 25 25 24 22 20 20 19 19 19 20 18 17 17 17 18 18 19 19 19 19 19 21 22 24 25 26 28 30 30 29 30 31 31 32 33 32 31 32 31 31 33 33 34 34 33 33 33 33 34 35 34 33 33 32 32 32 32 32 31 32 33 33 34 34 33 33 33 32 33
23 22 22 21 21 21 21 21 22 22 22 22 23 24 24 24 25 25 24 22 20 19 19 18 18 18 18 17 17 18 18 19 20 20 21 21 21 22 23 24 24 24 26 28 29 30 31 32 32 31 31 31 31 32 32 32 34 35 35 35 34 35 36 35 35 36 35 35 34 33 33 33 33 33 33 33 34 34 34 35 34 34 34 34 34
22 22 21 21 20 20 20 21 21 21 21 21 21 22 23 23 24 24 23 21 20 19 19 19 19 18 17 17 18 18 19 19 20 21 22 22 22 22 23 22 21 22 24 26 26 28 30 30 30 29 30 29 30 32 33 34 36 35 34 34 35 37 37 37 37 37 36 35 34 33 33 34 34 34 35 35 35 35 36 36 36 36 35 35 35
22 21 21 21 20 20 20 20 21 21 21 21 21 21 22 22 23 23 23 21 20 19 19 19 20 19 18 18 18 18 18 19 20 20 21 22 23 22 23 23 23 23 23 24 24 24 26 27 28 29 29 29 30 32 33 35 36 35 34 34 36 37 37 38 38 38 37 36 34 34 34 35 36 36 36 37 37 37 37 37 37 37 36 36 35
22 21 21 21 21 21 20 20 20 21 21 21 21 21 22 22 23 23 22 22 20 20 19 19 20 20 20 20 19 19 19 19 19 19 19 20 20 21 21 22 24 24 25 25 25 25 26 27 27 28 28 28 29 31 33 34 35 35 35 35 36 36 37 38 38 38 37 37 36 36 37 37 38 38 38 38 38 38 38 38 37 37 36 36 36
21 21 21 21 21 21 20 20 21 21 21 21 21 22 22 23 23 23 23 22 21 20 20 20 20 20 21 21 21 20 20 21 20 20 19 19 19 19 20 22 22 24 25 26 26 26 27 28 29 29 28 29 29 31 32 33 33 33 35 36 37 38 38 38 39 39 39 39 39 39 39 39 39 39 38 38 38 39 39 39 38 38 37 37 36
22 21 21 22 22 22 21 21 21 21 21 21 22 22 23 23 23 23 23 22 20 20 21 21 21 20 19 20 20 20 20 20 21 21 21 21 20 20 20 21 22 23 24 26 26 25 25 27 28 29 29 29 30 30 31 32 32 32 34 36 37 38 38 38 40 40 40 41 41 40 40 40 39 39 39 39 40 40 40 39 38 38 37 36 36
23 22 22 22 22 22 21 21 21 21 22 22 22 23 23 23 23 24 23 22 20 20 21 21 21 20 18 17 17 17 18 18 19 20 20 21 21 21 20 19 20 21 22 23 24 24 25 27 28 28 28 28 29 29 29 30 31 32 34 35 35 36 38 39 40 41 41 41 41 41 41 40 39 39 40 40 40 40 40 39 37 37 36 36 36
24 23 22 22 22 22 21 20 20 21 22 22 23 23 23 23 23 24 23 22 21 20 20 20 21 20 18 16 15 15 16 18 19 19 19 19 20 20 20 20 21 22 22 22 23 25 27 28 29 29 29 28 27 26 27 29 31 32 34 34 33 36 40 42 42 42 40 40 40 40 40 39 39 40 41 40 40 39 39 37 36 36 36 36 36
24 24 23 22 21 20 20 20 19 20 21 22 23 23 23 23 24 24 24 23 21 20 20 20 20 19 18 17 17 16 16 17 17 18 19 19 19 20 20 21 22 23 24 24 23 24 25 26 27 28 29 28 27 25 26 28 29 31 33 33 33 36 41 42 43 42 41 40 38 37 37 38 38 39 38 38 37 37 37 36 36 37 36 36 36
24 23 23 22 20 19 19 19 19 19 20 21 22 22 22 23 23 24 23 22 21 21 20 19 19 19 19 19 18 17 16 16 15 16 17 17 19 20 20 20 21 22 23 23 22 23 24 25 25 25 25 26 26 26 27 27 28 31 33 32 33 36 40 42 43 43 41 37 34 33 34 34 34 34 34 35 36 36 36 37 37 36 36 36 38
23 22 22 21 20 19 19 19 19 20 20 21 21 21 21 21 22 23 22 21 20 20 19 19 19 19 19 19 18 18 17 17 17 17 17 18 19 19 20 20 21 21 21 22 22 23 24 23 23 24 25 25 26 27 27 27 29 32 32 32 35 38 39 40 40 39 36 32 31 31 32 32 32 33 34 35 36 36 36 36 36 36 37 39 40
22 22 21 21 21 20 20 20 20 20 20 21 21 20 19 20 20 20 20 20 19 19 19 19 19 19 19 19 19 18 17 17 17 18 18 18 19 20 21 22 22 22 22 22 22 22 22 23 23 23 25 26 27 28 27 26 28 30 32 34 37 37 37 37 36 34 32 31 31 32 33 33 34 34 35 35 36 36 36 36 37 38 40 41 41
22 21 21 21 21 22 22 22 22 21 21 21 20 20 20 19 19 19 19 19 19 19 19 19 19 19 20 20 20 19 18 17 17 17 17 17 18 19 21 22 22 23 23 22 21 21 21 23 25 25 25 26 27 28 29 29 29 30 32 35 36 35 34 34 33 31 30 29 30 31 33 34 34 34 35 36 36 36 36 36 37 38 40 41 41
Wind_Direction
299 303 307 311 315 319 324 328 331 333 336 340 340 337 334 331 328 326 324 324 324 316 293 275 272 271 269 263 256 251 247 242 239 238 243 249 252 256 261 267 275 284 290 293 295 293 290 287 286 284 282 280 278 276 275 275 274 275 279 282 283 283 288 297 300 301 297 287 279 274 268 263 259 258 261 268 278 290 303 313 321 327 331 332 332
305 309 312 314 315 318 321 325 327 330 336 339 335 331 327 325 326 325 323 322 324 324 312 286 268 262 264 264 260 255 251 247 242 236 237 244 250 256 262 266 273 283 290 295 297 297 294 291 287 286 283 280 277 276 275 275 277 278 280 281 280 282 288 296 298 297 290 279 274 270 266 259 256 256 259 266 276 289 300 309 316 323 330 336 338
306 310 312 313 313 314 317 321 323 328 337 334 327 328 326 322 322 323 322 322 323 324 320 304 282 268 264 262 259 255 252 250 247 238 234 238 244 253 260 264 273 284 291 294 295 295 294 293 292 290 287 284 282 279 278 278 278 280 280 279 279 282 287 293 293 289 281 273 270 266 261 256 254 256 259 267 277 285 293 304 315 327 338 344 345
303 308 310 310 309 311 315 319 321 327 334 329 322 326 326 321 319 318 317 318 321 322 320 315 299 283 273 263 254 252 251 250 248 240 235 235 239 250 260 264 275 293 304 301 295 291 290 290 291 291 288 287 287 285 283 282 282 281 280 279 281 283 286 289 287 281 273 266 264 260 255 253 254 256 261 271 276 282 294 307 326 341 343 345 348
302 308 311 310 309 311 315 317 318 323 328 324 320 322 321 320 317 313 310 310 312 314 313 312 307 296 285 272 255 248 248 250 249 242 236 235 239 250 258 261 270 291 307 306 299 291 286 284 284 284 283 285 288 288 287 285 284 283 282 283 284 286 286 286 282 274 265 257 256 255 253 254 254 257 264 269 271 284 300 314 337 346 343 345 349
302 309 312 311 310 312 314 314 314 319 324 323 322 322 319 317 315 312 309 307 306 305 304 304 305 300 294 284 262 248 246 249 251 248 241 237 242 253 257 258 265 282 297 300 296 291 284 279 278 278 279 283 287 288 287 285 285 285 285 287 287 287 287 285 277 266 256 249 249 252 253 254 254 256 259 263 268 286 306 322 336 341 341 341 344
301 307 309 309 309 311 311 310 313 319 323 323 323 323 321 318 315 312 309 307 305 303 299 295 295 294 293 290 271 249 246 248 250 253 250 243 243 252 259 261 264 276 287 287 285 282 278 276 275 275 275 280 285 285 285 284 284 286 288 289 289 289 288 283 271 259 249 242 245 250 252 254 253 252 251 255 268 291 310 323 334 337 337 336 337
298 302 304 304 305 307 308 310 315 320 323 324 325 326 327 324 318 314 312 307 303 301 297 290 287 286 286 289 278 255 245 247 248 251 253 250 246 251 261 262 261 270 278 277 279 274 270 272 271 271 272 277 282 283 283 282 283 286 288 291 291 291 289 280 266 253 244 239 241 247 251 251 248 246 244 249 268 292 308 321 331 334 333 333 332
294 296 297 299 301 305 307 309 314 318 321 324 326 327 329 327 321 317 317 311 305 302 298 292 286 284 282 283 279 265 251 247 247 247 250 252 250 252 258 258 258 266 272 272 278 274 267 268 268 269 269 273 278 280 280 279 281 284 288 291 292 292 288 278 265 251 243 239 241 246 247 246 242 240 242 250 267 288 304 318 328 332 332 331 330
290 291 295 297 300 303 305 308 313 316 320 322 323 325 326 325 320 317 317 314 309 303 298 293 287 283 281 279 277 272 261 249 248 248 246 249 252 253 253 252 256 266 272 270 272 273 267 264 265 267 268 270 275 276 274 274 277 282 287 290 290 288 283 273 264 253 245 241 244 247 245 242 239 238 242 251 267 282 299 317 328 331 330 327 326
287 290 293 295 298 302 305 310 313 315 318 320 321 322 321 320 317 314 313 312 311 307 299 293 287 281 279 278 276 274 269 257 251 250 249 248 250 252 249 248 252 264 272 267 265 268 265 261 262 266 267 267 270 270 268 269 273 279 285 288 287 283 277 268 261 253 247 246 246 245 243 242 242 243 247 255 268 280 297 317 327 328 325 322 320
285 287 289 292 296 302 305 308 311 314 317 318 318 317 316 316 314 311 310 309 310 309 303 295 290 284 278 277 276 275 272 265 258 254 252 250 249 249 249 247 246 256 267 265 261 262 262 259 260 265 266 264 264 264 262 264 268 274 281 284 283 279 273 266 258 252 249 248 246 244 244 247 248 249 254 262 271 282 297 312 320 320 318 315 314
284 285 288 292 297 302 304 306 309 313 315 316 316 316 314 312 309 307 308 308 307 306 303 298 293 288 281 278 276 274 270 265 262 259 255 253 251 248 247 245 241 249 262 262 259 259 258 257 257 262 265 263 261 259 259 261 265 271 276 278 277 275 271 265 259 253 251 248 246 247 249 251 254 256 260 267 275 282 293 304 309 311 310 310 310
284 286 289 293 298 303 304 306 309 312 315 316 317 316 315 312 308 307 307 307 306 303 300 295 291 286 281 276 272 270 267 264 264 263 258 254 253 248 245 242 239 245 257 259 259 258 255 255 256 259 264 262 259 257 256 259 263 267 269 271 271 270 268 264 259 255 251 249 250 252 254 255 257 260 264 269 275 281 288 295 299 301 304 306 307
286 287 290 294 298 303 305 307 310 313 316 318 318 317 316 315 312 309 307 305 303 302 298 293 289 285 278 275 273 268 265 265 264 263 259 256 256 250 243 240 238 243 253 256 258 257 253 254 254 255 260 261 257 255 255 258 261 263 263 265 266 265 266 263 259 257 254 254 256 258 259 259 261 264 267 271 275 280 285 289 292 295 298 301 302
287 288 291 294 298 302 305 308 311 314 317 319 319 318 316 316 313 309 305 303 301 299 296 291 287 283 278 277 275 270 266 264 261 259 257 254 256 253 243 239 240 245 250 253 258 257 251 249 250 251 256 258 256 254 254 257 259 259 259 261 261 260 262 262 259 258 259 259 260 261 262 262 264 267 270 275 279 282 284 286 288 290 293 296 298
289 290 292 295 299 303 306 309 312 316 319 320 319 317 316 314 311 308 304 301 299 297 294 290 284 280 278 277 275 271 266 261 258 259 257 251 252 253 247 241 242 245 248 251 255 254 248 247 247 247 252 255 255 254 253 255 257 257 256 258 258 258 259 261 260 261 263 264 263 263 264 265 267 270 273 276 280 282 283 284 286 287 289 292 295
291 292 294 297 301 305 308 312 315 318 321 321 319 316 314 310 307 305 303 301 299 295 291 288 283 278 276 275 274 270 264 260 259 261 259 252 248 250 247 243 243 244 245 246 248 248 247 246 245 245 249 253 253 253 252 253 255 254 254 255 255 255 257 259 262 263 264 266 266 265 265 266 268 269 271 273 276 279 280 281 282 284 286 288 291
292 292 294 297 301 306 310 315 318 320 321 320 317 314 311 309 306 306 305 303 300 296 289 285 281 276 272 271 271 269 264 261 261 260 260 255 247 245 245 243 242 242 241 241 244 246 247 247 245 243 246 251 251 251 251 253 253 253 253 253 253 254 256 258 260 262 265 266 268 268 267 266 266 268 270 272 274 275 276 278 280 281 283 285 288
293 293 294 297 302 307 312 317 319 320 320 318 316 314 312 310 310 310 309 306 303 299 290 284 279 273 270 267 266 266 263 260 259 258 260 259 250 245 244 243 241 241 239 238 241 244 244 245 245 242 243 248 249 249 250 251 249 251 252 253 252 253 255 258 259 261 263 265 267 268 267 267 267 269 270 272 273 275 276 277 278 280 281 283 287
295 294 295 298 303 309 313 317 318 319 319 318 316 314 313 313 313 313 312 309 305 301 293 285 278 272 268 266 263 262 261 258 254 253 255 259 256 248 244 242 241 241 239 236 237 238 238 241 243 241 241 245 247 247 249 249 248 250 252 252 252 253 256 259 260 260 261 262 265 267 267 268 269 270 271 272 274 275 276 277 278 280 281 283 287
296 295 297 301 305 309 313 315 316 318 318 317 315 314 314 314 314 313 312 309 305 300 294 286 278 271 265 263 261 258 257 255 253 253 251 254 255 249 244 244 243 243 240 234 233 234 233 235 237 239 241 243 245 245 246 247 248 250 252 252 251 253 257 260 260 260 260 260 263 265 266 268 270 271 271 272 274 276 276 276 277 279 281 283 286
299 297 298 302 305 308 312 314 315 317 317 316 315 315 315 314 314 312 310 307 302 297 293 287 280 272 264 261 259 256 254 253 253 256 254 251 250 244 241 246 248 247 241 233 232 233 233 233 235 238 241 242 244 244 245 246 247 250 251 251 251 252 256 259 260 260 260 261 262 264 267 269 271 271 270 270 271 272 274 275 277 278 280 281 283
301 299 300 302 305 308 311 313 316 317 317 316 315 315 315 314 313 311 308 304 300 295 293 288 280 271 262 258 257 255 253 251 252 254 254 252 251 244 239 243 249 247 241 234 232 233 233 234 235 237 239 240 242 243 244 245 247 249 250 250 250 252 255 258 260 260 261 262 262 263 266 269 271 270 269 269 269 269 271 274 275 275 276 278 280
300 299 300 302 305 308 311 313 316 317 317 315 315 314 314 314 312 311 308 304 299 295 293 288 279 269 258 253 253 253 252 253 253 253 254 253 251 247 239 239 243 245 241 236 234 234 234 233 233 234 237 238 239 242 243 244 247 249 250 250 249 250 253 256 259 260 261 262 262 263 265 268 270 270 270 269 269 271 273 272 271 271 272 275 279
300 298 298 300 303 306 309 312 315 316 316 315 315 315 315 314 314 312 310 305 300 297 295 288 278 267 256 250 250 250 250 254 255 256 259 257 249 246 240 235 236 240 241 239 236 236 234 233 232 232 236 238 238 240 243 244 246 248 249 250 250 251 253 255 257 259 261 262 263 263 264 266 268 270 271 270 269 269 270 268 268 270 272 275 278
302 299 298 300 303 306 309 312 315 316 316 316 316 316 315 315 316 315 312 307 304 300 295 288 277 265 255 249 247 247 249 254 257 259 262 264 253 243 238 234 233 237 241 240 236 234 233 232 230 230 235 238 238 238 241 245 248 249 249 250 251 252 253 253 255 257 261 262 263 263 263 264 265 266 268 269 268 266 265 265 267 269 272 275 278
304 301 301 302 305 307 309 313 316 318 318 318 317 316 316 318 319 318 314 311 308 302 294 288 278 265 256 250 246 246 249 254 259 262 264 267 257 240 232 231 232 236 241 238 233 230 232 232 230 229 233 236 236 237 240 245 248 248 248 250 252 253 253 253 254 257 260 261 262 262 262 262 263 264 265 267 268 267 265 264 266 268 271 274 276
305 304 304 305 306 308 311 314 318 319 319 318 317 317 318 320 321 320 317 315 311 303 296 289 278 268 259 252 247 245 250 256 261 267 268 263 253 238 227 225 228 235 239 236 231 228 231 233 231 230 232 233 235 238 240 244 246 247 247 249 252 253 253 252 253 256 259 260 261 261 261 261 262 263 264 265 267 266 264 264 266 269 271 272 274
306 305 305 306 307 309 312 316 318 318 318 317 317 317 319 322 322 321 320 318 314 308 300 289 277 269 261 253 248 245 251 260 265 270 268 254 246 235 221 215 223 235 238 234 231 231 232 234 234 234 234 234 237 240 242 244 247 248 249 249 251 252 253 254 254 256 258 259 259 259 259 260 260 262 263 265 266 265 263 264 266 269 270 271 272
307 305 305 306 307 309 312 316 318 318 317 317 317 317 319 322 323 322 321 320 316 312 304 293 281 270 262 256 251 248 253 263 270 273 260 241 237 230 218 211 215 228 235 234 232 234 235 235 235 237 237 237 239 241 243 246 249 250 250 249 250 253 255 256 255 256 257 257 257 257 257 259 259 261 263 264 264 263 263 264 266 268 269 270 270
307 305 304 305 306 308 312 315 317 317 316 317 317 318 319 323 325 324 322 320 317 315 309 299 287 273 265 261 256 252 258 266 271 275 255 231 227 227 222 219 217 221 230 233 233 235 237 235 235 237 238 238 240 243 245 247 249 250 249 248 248 252 255 256 255 255 256 255 256 256 256 258 259 260 261 262 262 262 264 265 266 267 268 268 269
306 304 303 304 305 308 311 314 315 315 316 317 317 318 319 322 326 326 322 319 318 320 318 309 296 281 272 268 262 258 265 272 272 275 261 233 227 229 228 226 224 224 228 231 233 236 237 237 236 238 241 242 243 244 244 245 246 249 251 251 248 246 250 253 254 254 254 255 255 256 256 257 259 260 260 259 260 262 264 266 267 267 268 268 269
305 303 303 303 305 308 309 312 313 314 316 317 317 318 318 320 325 327 322 315 312 316 321 317 307 293 281 276 273 268 268 276 276 271 265 244 231 231 230 227 225 227 231 233 235 238 239 239 238 240 243 244 244 244 243 244 247 248 250 251 249 246 246 251 253 254 255 256 256 255 255 257 259 260 259 258 259 262 265 267 268 268 268 268 269
304 303 302 303 304 306 308 310 312 313 315 317 317 317 317 317 321 326 323 314 304 303 307 311 308 298 286 279 277 274 271 275 276 269 263 255 239 232 231 229 226 226 231 236 238 240 241 242 242 242 244 243 242 242 242 243 247 248 246 246 247 247 248 250 253 255 256 256 256 255 255 256 257 258 259 259 260 263 266 268 269 269 269 269 269
303 302 301 300 302 304 306 309 311 313 314 316 316 316 317 316 317 321 323 319 308 301 299 300 300 297 290 279 274 275 273 272 273 270 263 256 249 243 238 236 232 229 230 234 239 242 242 243 243 244 244 243 240 240 240 239 242 246 245 243 245 248 249 250 252 253 254 254 254 254 255 254 254 255 256 258 260 262 265 267 268 269 269 270 270
300 299 298 298 300 303 305 307 309 312 313 314 315 315 316 316 316 316 320 321 314 306 299 295 294 294 291 283 276 274 273 270 269 269 264 253 246 248 247 243 240 237 235 236 241 245 244 243 244 246 244 243 241 242 241 239 240 243 244 243 245 250 251 251 250 251 252 253 254 254 254 253 253 254 254 257 259 262 264 267 268 269 269 270 270
297 296 296 297 300 302 304 305 307 310 311 312 313 314 316 318 317 316 317 319 316 309 302 296 292 292 291 285 280 277 274 272 269 266 264 256 246 244 245 244 244 244 241 239 242 247 247 246 248 248 244 243 244 245 244 242 242 242 242 243 246 250 250 249 249 250 251 252 253 253 253 253 253 254 255 257 259 262 264 266 267 267 268 268 269
295 294 295 296 298 300 302 303 305 306 308 310 310 312 316 319 320 319 319 319 318 312 305 300 294 292 291 286 281 279 275 272 270 267 264 260 254 249 247 247 245 244 244 243 243 246 249 249 250 249 247 247 248 249 248 244 243 242 242 243 246 248 248 247 247 248 249 251 252 253 254 254 254 255 256 257 259 262 264 265 265 266 267 268 269
294 293 293 294 295 297 299 301 302 303 304 306 307 308 314 319 322 323 322 321 322 318 311 304 297 291 290 287 282 280 279 275 271 269 264 260 258 255 254 252 249 245 245 245 245 246 246 247 246 247 247 248 252 254 252 247 245 245 243 243 246 248 247 246 246 247 247 248 251 254 255 255 255 255 256 257 259 261 263 264 265 266 267 269 271
292 291 291 292 293 294 297 298 298 299 300 301 302 305 310 316 320 322 322 321 321 321 316 308 299 291 285 283 280 279 281 280 276 272 267 262 260 260 259 257 253 250 247 246 246 246 245 245 246 246 248 250 253 255 253 248 246 246 246 245 246 248 248 247 247 247 247 248 252 254 254 254 254 254 255 257 259 261 263 265 266 268 269 270 272
291 290 290 290 291 294 296 296 295 296 296 296 298 301 305 310 314 318 321 321 318 319 319 315 307 298 289 283 278 276 277 280 280 277 272 266 261 261 263 260 257 253 250 249 248 248 248 250 251 252 253 254 254 253 252 248 246 246 248 248 247 248 250 250 249 248 248 249 252 253 252 251 252 253 255 257 260 262 264 266 268 269 270 270 271
291 290 289 289 291 293 294 294 293 293 292 292 293 296 299 304 309 313 318 321 320 318 318 318 314 308 300 291 283 277 275 276 277 275 272 267 263 260 261 260 259 257 255 253 251 252 254 255 256 256 256 255 255 254 253 251 249 248 248 247 248 248 249 250 250 249 248 250 252 252 251 251 252 254 256 259 261 263 265 267 268 268 268 269 271
290 288 288 289 291 293 293 292 292 291 290 289 289 291 294 298 304 308 312 317 319 318 317 318 317 315 309 300 291 284 281 280 279 276 272 267 263 262 262 262 261 260 259 256 255 256 258 259 259 259 258 256 255 255 255 255 252 249 247 246 248 250 251 251 251 249 249 251 252 252 252 252 253 255 257 260 261 263 265 267 267 267 267 269 271
290 288 287 288 290 292 291 291 290 289 289 288 288 288 291 295 300 304 308 311 313 314 316 317 317 316 312 304 296 291 288 286 284 281 276 270 263 261 264 267 266 265 263 261 258 255 254 255 257 259 260 259 257 254 254 255 253 250 248 247 249 252 253 253 252 253 253 254 255 255 254 253 254 257 259 260 262 264 265 266 266 266 268 270 271
293 291 289 289 290 290 290 288 286 286 287 288 288 288 290 294 297 300 304 307 308 308 311 315 316 314 310 303 297 293 291 288 285 281 277 272 266 261 261 264 265 265 265 265 264 261 258 258 258 257 258 259 258 256 252 251 252 251 248 247 248 250 250 251 253 255 258 259 260 260 257 256 258 260 262 263 263 264 264 265 266 268 270 271 271
293 292 291 291 289 289 288 286 284 282 283 285 287 289 290 292 295 298 300 302 304 304 306 310 313 314 313 307 300 294 291 291 289 285 279 274 271 268 265 262 261 262 262 261 259 257 259 261 261 259 256 255 255 255 252 249 249 249 249 248 247 246 248 250 254 259 260 260 261 262 260 260 262 264 264 264 263 264 265 267 269 271 271 272 272
291 291 291 291 290 289 288 287 286 284 283 284 286 288 290 291 293 295 297 299 301 302 305 308 311 313 316 315 309 300 293 291 290 288 284 279 275 271 269 265 261 259 260 257 251 248 251 255 257 256 254 253 252 251 250 249 246 246 248 250 248 248 250 253 257 259 259 258 260 262 261 261 262 263 263 263 264 266 267 269 270 270 271 271 272
290 289 289 289 289 289 289 288 287 286 285 285 286 287 288 289 291 293 295 297 299 302 304 306 309 312 314 316 315 310 303 296 292 290 289 285 278 272 268 265 259 256 258 258 255 253 252 252 250 247 246 246 247 248 248 246 244 245 247 249 251 252 252 253 254 255 255 259 264 265 263 263 263 263 264 265 266 267 268 269 269 269 270 271 273
288 287 286 286 285 287 288 287 288 288 287 286 285 285 285 287 290 293 295 298 300 302 304 305 306 309 310 312 314 314 312 306 301 299 296 290 282 275 270 267 265 264 264 263 261 258 252 245 243 241 239 239 241 244 244 240 239 244 249 250 250 249 248 249 252 253 255 261 265 264 264 264 264 265 265 266 267 268 269 269 269 270 271 272 273
286 285 286 286 285 285 285 285 286 288 289 289 286 284 284 285 289 293 297 299 301 303 304 305 306 307 308 310 312 313 313 311 307 306 304 301 295 285 275 269 266 267 269 268 267 265 258 249 245 245 245 244 246 248 247 242 239 243 251 252 248 242 242 247 252 254 257 262 263 262 261 262 263 265 266 267 268 269 269 270 271 272 274 274 275
Height
5837 5837 5837 5837 5836 5835 5834 5832 5831 5830 5830 5829 5828 5827 5826 5824 5823 5823 5822 5822 5822 5823 5822 5820 5819 5819 5818 5817 5817 5817 5817 5818 5818 5818 5819 5820 5820 5820 5820 5820 5820 5819 5819 5818 5818 5818 5819 5818 5817 5816 5816 5816 5816 5816 5816 5815 5815 5815 5814 5814 5814 5814 5814 5813 5813 5813 5813 5812 5812 5812 5812 5812 5811 5811 5811 5811 5811 5811 5811 5811 5810 5810 5810 5810 5809
5836 5837 5837 5837 5836 5834 5833 5831 5830 5829 5829 5828 5827 5825 5824 5823 5822 5821 5820 5820 5820 5821 5821 5820 5818 5818 5817 5817 5816 5816 5816 5816 5817 5817 5818 5818 5819 5819 5819 5819 5819 5818 5818 5817 5816 5817 5817 5817 5816 5815 5814 5814 5815 5815 5815 5815 5815 5814 5814 5813 5813 5813 5813 5812 5812 5812 5812 5812 5812 5812 5812 5811 5811 5811 5811 5811 5811 5811 5811 5810 5810 5810 5810 5809 5809
5836 5836 5836 5835 5834 5833 5831 5830 5829 5829 5829 5827 5825 5823 5822 5822 5821 5820 5819 5818 5818 5819 5819 5819 5817 5816 5816 5816 5815 5815 5815 5815 5816 5816 5816 5817 5817 5818 5818 5818 5817 5817 5816 5816 5815 5815 5816 5816 5816 5814 5814 5814 5814 5814 5814 5814 5814 5814 5813 5813 5812 5812 5812 5812 5811 5811 5811 5811 5811 5811 5811 5811 5811 5811 5811 5811 5811 5811 5810 5810 5810 5809 5809 5809 5809
5835 5835 5834 5834 5833 5832 5830 5829 5828 5828 5829 5826 5823 5822 5821 5821 5820 5819 5818 5816 5816 5817 5816 5816 5815 5815 5815 5815 5814 5813 5813 5813 5814 5815 5815 5815 5816 5816 5816 5816 5816 5816 5815 5815 5814 5814 5814 5815 5815 5814 5813 5813 5813 5813 5814 5813 5813 5813 5812 5812 5812 5811 5811 5811 5810 5810 5810 5810 5810 5810 5810 5810 5810 5810 5811 5811 5811 5811 5810 5810 5810 5809 5809 5809 5809
5834 5833 5833 5832 5832 5831 5829 5828 5826 5827 5827 5825 5822 5821 5820 5819 5818 5817 5816 5815 5814 5814 5814 5814 5813 5812 5813 5813 5812 5812 5811 5812 5812 5813 5813 5814 5814 5815 5815 5815 5815 5814 5814 5814 5813 5813 5813 5813 5814 5813 5812 5812 5812 5812 5813 5812 5812 5812 5812 5811 5811 5810 5810 5810 5809 5809 5809 5809 5809 5810 5810 5810 5810 5810 5810 5811 5811 5811 5810 5810 5810 5809 5809 5809 5808
5832 5832 5831 5831 5830 5829 5828 5826 5825 5825 5825 5823 5821 5820 5819 5818 5817 5815 5814 5813 5813 5812 5812 5812 5811 5810 5810 5811 5810 5810 5810 5810 5810 5811 5812 5812 5813 5813 5814 5813 5813 5813 5812 5812 5812 5812 5811 5812 5812 5812 5811 5811 5811 5811 5811 5811 5811 5811 5811 5810 5810 5810 5809 5809 5809 5808 5808 5808 5809 5809 5809 5809 5810 5810 5810 5810 5810 5810 5810 5810 5809 5809 5809 5808 5808
5831 5830 5830 5829 5828 5827 5825 5824 5823 5823 5823 5821 5820 5819 5817 5816 5815 5814 5813 5812 5811 5811 5810 5809 5809 5808 5808 5808 5808 5808 5808 5808 5809 5809 5810 5810 5811 5812 5812 5812 5812 5811 5811 5811 5811 5810 5810 5810 5811 5811 5810 5810 5810 5810 5810 5810 5810 5810 5810 5810 5810 5809 5809 5808 5808 5808 5808 5808 5808 5808 5809 5809 5809 5809 5810 5810 5810 5810 5810 5810 5809 5809 5808 5808 5808
5830 5829 5828 5828 5827 5826 5824 5823 5822 5822 5821 5819 5818 5817 5815 5814 5813 5812 5811 5810 5809 5809 5808 5808 5806 5806 5806 5806 5806 5806 5806 5806 5807 5808 5808 5808 5809 5810 5810 5810 5810 5810 5811 5810 5810 5809 5809 5809 5810 5810 5809 5808 5809 5809 5809 5809 5809 5809 5809 5809 5809 5808 5808 5808 5807 5807 5807 5807 5807 5808 5808 5808 5809 5809 5809 5809 5809 5810 5809 5809 5809 5808 5808 5808 5808
5829 5828 5827 5826 5826 5825 5824 5822 5821 5820 5819 5818 5816 5814 5813 5811 5810 5809 5809 5807 5807 5806 5806 5806 5805 5804 5804 5803 5803 5804 5804 5804 5804 5805 5806 5806 5807 5808 5808 5809 5809 5809 5809 5809 5808 5808 5808 5808 5809 5808 5808 5807 5807 5808 5808 5808 5808 5808 5808 5808 5808 5807 5807 5807 5807 5807 5807 5807 5807 5807 5807 5808 5808 5808 5809 5809 5809 5809 5809 5809 5808 5808 5808 5808 5807
5827 5826 5825 5825 5825 5824 5823 5821 5820 5819 5818 5817 5815 5812 5811 5810 5809 5807 5807 5806 5805 5804 5803 5803 5803 5802 5802 5801 5801 5801 5801 5801 5802 5802 5804 5804 5804 5806 5806 5807 5807 5807 5807 5807 5807 5806 5806 5807 5807 5807 5807 5806 5806 5807 5807 5807 5807 5807 5807 5807 5807 5806 5806 5806 5806 5806 5806 5806 5806 5806 5807 5807 5808 5808 5808 5808 5808 5808 5808 5808 5808 5808 5807 5807 5807
5825 5824 5824 5824 5823 5822 5821 5820 5818 5817 5816 5815 5813 5811 5809 5808 5807 5806 5805 5804 5803 5802 5801 5801 5800 5800 5799 5799 5798 5798 5798 5799 5799 5800 5801 5801 5802 5803 5804 5804 5805 5805 5805 5806 5805 5805 5805 5805 5805 5806 5805 5805 5805 5806 5806 5806 5806 5806 5806 5806 5806 5806 5806 5806 5805 5805 5805 5805 5805 5806 5806 5807 5807 5807 5807 5807 5808 5807 5807 5807 5807 5807 5807 5807 5807
5823 5823 5822 5822 5821 5820 5819 5818 5817 5815 5814 5813 5811 5810 5808 5806 5805 5803 5802 5801 5800 5799 5799 5798 5797 5797 5797 5796 5796 5796 5795 5796 5797 5797 5797 5798 5800 5801 5801 5802 5802 5803 5803 5803 5804 5804 5804 5804 5804 5804 5804 5804 5804 5804 5805 5805 5805 5805 5805 5805 5805 5805 5805 5805 5805 5805 5805 5805 5805 5805 5805 5806 5806 5807 5807 5807 5807 5807 5807 5807 5806 5807 5806 5806 5806
5821 5821 5820 5820 5819 5818 5817 5816 5815 5813 5812 5811 5809 5808 5806 5805 5803 5801 5800 5798 5797 5797 5796 5796 5795 5794 5794 5794 5793 5793 5792 5793 5793 5794 5794 5795 5796 5797 5798 5799 5800 5800 5801 5801 5802 5802 5802 5802 5802 5802 5803 5803 5803 5803 5803 5803 5803 5803 5804 5804 5804 5804 5804 5804 5804 5804 5804 5804 5804 5804 5805 5805 5806 5806 5806 5806 5806 5806 5806 5806 5806 5806 5806 5806 5806
5818 5818 5818 5818 5817 5816 5815 5814 5813 5811 5810 5808 5807 5805 5804 5802 5801 5799 5797 5796 5795 5794 5794 5793 5792 5792 5791 5790 5790 5789 5789 5790 5790 5791 5791 5791 5793 5794 5795 5796 5796 5797 5798 5799 5800 5800 5801 5801 5800 5800 5801 5801 5801 5802 5802 5802 5802 5802 5802 5803 5803 5803 5803 5803 5803 5803 5803 5803 5803 5804 5804 5805 5805 5805 5806 5806 5806 5806 5806 5805 5805 5805 5805 5805 5805
5816 5816 5816 5816 5815 5814 5813 5811 5810 5809 5807 5806 5804 5802 5800 5799 5798 5796 5795 5793 5792 5791 5790 5789 5789 5788 5787 5786 5786 5786 5786 5787 5787 5787 5787 5788 5789 5791 5792 5793 5793 5794 5796 5797 5797 5798 5799 5799 5798 5798 5799 5800 5800 5800 5800 5800 5800 5800 5801 5801 5801 5802 5802 5802 5802 5803 5803 5803 5803 5803 5803 5804 5804 5804 5805 5805 5805 5805 5805 5805 5805 5805 5804 5804 5804
5814 5813 5813 5813 5812 5811 5810 5809 5808 5806 5805 5803 5801 5799 5797 5796 5794 5793 5792 5791 5789 5788 5787 5786 5785 5784 5783 5782 5783 5782 5783 5783 5783 5783 5784 5784 5786 5787 5789 5790 5790 5792 5793 5794 5795 5795 5796 5796 5796 5796 5797 5798 5798 5798 5799 5799 5799 5799 5799 5799 5800 5800 5801 5801 5802 5802 5802 5802 5802 5803 5803 5803 5803 5804 5804 5804 5804 5804 5804 5804 5804 5804 5804 5804 5803
5811 5811 5811 5810 5809 5808 5807 5806 5805 5803 5802 5800 5798 5796 5794 5793 5792 5790 5789 5788 5787 5785 5783 5782 5782 5780 5780 5779 5779 5779 5779 5779 5779 5780 5780 5781 5782 5783 5785 5786 5788 5789 5791 5792 5793 5793 5793 5793 5794 5794 5795 5796 5796 5797 5797 5797 5797 5797 5797 5798 5798 5799 5799 5800 5801 5801 5801 5801 5802 5802 5802 5802 5802 5803 5803 5803 5803 5803 5803 5803 5803 5803 5803 5802 5802
5809 5808 5808 5807 5806 5805 5804 5803 5801 5800 5798 5797 5795 5793 5792 5790 5789 5787 5786 5785 5784 5782 5780 5778 5778 5777 5776 5775 5775 5775 5775 5775 5775 5776 5776 5777 5779 5780 5781 5783 5784 5786 5788 5790 5790 5790 5790 5791 5791 5792 5792 5793 5794 5795 5795 5795 5796 5796 5796 5796 5796 5797 5797 5798 5799 5800 5800 5801 5801 5801 5801 5801 5801 5801 5801 5801 5801 5801 5801 5801 5801 5801 5801 5801 5801
5806 5806 5805 5804 5803 5802 5800 5799 5798 5796 5795 5794 5792 5790 5788 5786 5785 5783 5782 5781 5780 5779 5777 5774 5774 5773 5772 5771 5772 5772 5772 5772 5773 5773 5773 5774 5775 5776 5778 5779 5781 5782 5784 5786 5787 5787 5788 5789 5789 5789 5790 5791 5792 5792 5793 5793 5794 5794 5794 5794 5794 5795 5796 5796 5797 5798 5799 5799 5800 5800 5800 5800 5800 5800 5800 5800 5800 5800 5800 5800 5800 5800 5800 5800 5800
5803 5803 5802 5801 5800 5799 5797 5796 5794 5793 5791 5790 5788 5786 5784 5782 5780 5779 5777 5776 5775 5773 5772 5770 5769 5769 5768 5767 5768 5768 5769 5769 5769 5769 5770 5771 5772 5773 5774 5776 5777 5779 5780 5782 5784 5785 5785 5786 5786 5787 5787 5788 5790 5790 5791 5791 5792 5792 5792 5792 5793 5793 5794 5795 5795 5796 5797 5797 5798 5798 5798 5798 5798 5798 5798 5798 5798 5798 5798 5798 5798 5798 5798 5798 5798
5801 5800 5799 5798 5797 5796 5795 5793 5792 5790 5788 5786 5784 5782 5779 5777 5775 5774 5772 5771 5769 5768 5767 5766 5765 5764 5763 5763 5764 5764 5764 5765 5766 5766 5766 5767 5768 5769 5770 5771 5773 5775 5776 5778 5780 5781 5781 5782 5783 5784 5785 5786 5787 5788 5789 5789 5790 5790 5790 5790 5791 5791 5792 5793 5793 5794 5795 5795 5796 5796 5796 5796 5797 5797 5797 5797 5797 5797 5797 5796 5796 5797 5797 5796 5797
5799 5798 5797 5796 5795 5794 5793 5791 5789 5787 5785 5783 5780 5778 5776 5773 5771 5769 5768 5766 5764 5763 5762 5761 5760 5759 5759 5758 5759 5760 5760 5761 5762 5761 5762 5763 5764 5765 5766 5767 5770 5771 5772 5774 5776 5777 5778 5779 5780 5781 5782 5783 5785 5786 5786 5787 5787 5788 5788 5788 5789 5789 5790 5791 5791 5792 5792 5793 5793 5794 5794 5794 5795 5795 5795 5795 5795 5795 5795 5795 5795 5795 5795 5795 5795
5797 5796 5795 5794 5793 5792 5791 5789 5787 5785 5782 5780 5778 5775 5773 5770 5768 5766 5764 5762 5759 5758 5757 5756 5755 5754 5754 5754 5755 5755 5756 5757 5758 5758 5759 5760 5761 5762 5763 5764 5766 5767 5768 5771 5773 5774 5776 5777 5778 5779 5780 5781 5782 5783 5784 5785 5785 5785 5786 5786 5787 5787 5788 5789 5789 5790 5790 5791 5791 5791 5792 5792 5793 5793 5793 5793 5793 5793 5793 5793 5793 5793 5793 5793 5793
5794 5793 5792 5792 5791 5790 5788 5786 5784 5782 5780 5777 5775 5772 5770 5767 5765 5763 5760 5757 5755 5753 5752 5751 5750 5750 5749 5749 5750 5751 5751 5752 5753 5754 5755 5756 5757 5758 5760 5761 5763 5764 5765 5767 5770 5771 5773 5774 5775 5776 5777 5779 5780 5780 5781 5782 5783 5783 5783 5784 5784 5785 5786 5786 5787 5787 5788 5789 5789 5789 5789 5789 5790 5791 5791 5791 5792 5792 5791 5791 5791 5791 5791 5791 5791
5793 5791 5790 5789 5788 5787 5785 5784 5782 5780 5777 5775 5772 5770 5767 5764 5762 5759 5756 5753 5750 5748 5747 5746 5745 5744 5744 5745 5745 5746 5747 5748 5750 5751 5752 5752 5753 5754 5756 5757 5759 5761 5762 5764 5766 5768 5770 5771 5772 5773 5775 5776 5777 5777 5778 5779 5780 5780 5780 5781 5782 5783 5783 5784 5785 5785 5786 5786 5787 5787 5787 5787 5787 5788 5789 5790 5790 5790 5790 5789 5789 5789 5789 5789 5789
5791 5789 5788 5787 5786 5784 5783 5781 5779 5777 5775 5772 5770 5767 5764 5761 5758 5755 5752 5749 5746 5744 5742 5741 5739 5739 5740 5740 5741 5742 5743 5745 5746 5748 5748 5749 5749 5750 5752 5754 5755 5757 5759 5761 5763 5765 5767 5768 5769 5771 5772 5773 5774 5775 5775 5776 5777 5777 5778 5779 5780 5780 5781 5782 5782 5783 5783 5784 5784 5785 5785 5785 5785 5785 5786 5787 5788 5788 5788 5788 5787 5787 5787 5787 5787
5788 5787 5785 5784 5783 5781 5780 5779 5777 5775 5772 5770 5766 5763 5760 5757 5754 5751 5748 5745 5742 5740 5738 5736 5735 5735 5736 5737 5738 5739 5739 5741 5743 5744 5745 5745 5746 5747 5748 5750 5752 5754 5756 5758 5760 5762 5763 5764 5766 5768 5769 5769 5771 5772 5772 5773 5774 5775 5776 5776 5777 5778 5779 5779 5780 5780 5781 5782 5782 5782 5782 5782 5782 5783 5784 5785 5786 5786 5786 5786 5786 5785 5785 5785 5785
5785 5783 5782 5781 5780 5779 5777 5775 5774 5772 5769 5766 5763 5760 5757 5754 5750 5747 5744 5741 5739 5736 5734 5733 5732 5732 5733 5734 5735 5735 5736 5738 5740 5741 5741 5741 5742 5743 5745 5747 5749 5751 5753 5755 5757 5759 5759 5760 5763 5765 5765 5766 5767 5768 5769 5770 5771 5772 5773 5774 5775 5775 5776 5777 5777 5778 5779 5779 5779 5780 5780 5780 5780 5781 5781 5782 5783 5784 5784 5784 5784 5783 5783 5783 5782
5782 5780 5779 5778 5777 5776 5774 5772 5770 5768 5765 5763 5760 5757 5754 5751 5747 5744 5741 5738 5736 5733 5731 5730 5729 5729 5730 5731 5731 5732 5733 5734 5736 5737 5737 5737 5738 5739 5741 5744 5746 5748 5750 5752 5754 5755 5756 5757 5759 5761 5762 5763 5763 5765 5767 5768 5768 5769 5770 5771 5772 5773 5773 5774 5775 5775 5776 5776 5777 5777 5777 5777 5777 5778 5779 5780 5781 5781 5781 5781 5781 5781 5781 5780 5780
5779 5777 5776 5775 5774 5773 5771 5770 5767 5765 5762 5760 5757 5754 5751 5748 5745 5742 5739 5736 5733 5731 5729 5728 5727 5727 5728 5728 5729 5729 5730 5731 5733 5733 5733 5733 5734 5735 5737 5740 5743 5745 5747 5749 5750 5752 5753 5754 5756 5757 5758 5759 5760 5762 5764 5765 5766 5767 5767 5768 5769 5770 5770 5771 5772 5772 5773 5773 5774 5774 5774 5774 5774 5775 5776 5777 5778 5779 5779 5779 5778 5778 5778 5778 5778
5776 5775 5773 5772 5771 5769 5768 5767 5764 5762 5759 5757 5755 5752 5749 5746 5743 5740 5737 5734 5731 5729 5728 5727 5726 5726 5726 5727 5727 5727 5727 5729 5730 5730 5730 5730 5731 5732 5734 5737 5739 5741 5743 5745 5747 5748 5750 5752 5753 5754 5754 5756 5758 5760 5761 5763 5764 5764 5764 5765 5766 5767 5768 5768 5769 5769 5770 5770 5771 5771 5771 5771 5771 5772 5773 5774 5775 5776 5776 5776 5776 5775 5775 5775 5775
5773 5772 5770 5769 5768 5767 5765 5763 5761 5759 5756 5754 5752 5750 5747 5744 5741 5738 5735 5733 5730 5728 5727 5726 5725 5725 5726 5725 5725 5725 5726 5727 5727 5727 5727 5727 5729 5730 5732 5734 5736 5737 5740 5743 5744 5745 5746 5748 5749 5750 5751 5753 5756 5758 5759 5761 5761 5760 5760 5762 5763 5765 5765 5764 5765 5766 5767 5767 5768 5768 5769 5768 5769 5770 5771 5771 5772 5773 5773 5773 5773 5772 5772 5772 5772
5770 5769 5768 5766 5765 5764 5762 5760 5758 5756 5754 5751 5749 5747 5745 5742 5739 5737 5734 5732 5729 5728 5726 5725 5725 5725 5725 5724 5724 5724 5725 5725 5725 5724 5724 5725 5727 5729 5731 5732 5734 5736 5738 5740 5741 5742 5743 5744 5745 5747 5749 5751 5753 5755 5756 5757 5756 5756 5757 5759 5761 5763 5761 5760 5761 5763 5764 5764 5765 5765 5766 5766 5766 5767 5768 5768 5769 5769 5769 5769 5769 5769 5769 5769 5769
5767 5766 5765 5763 5762 5761 5759 5758 5756 5754 5751 5749 5747 5745 5743 5740 5737 5735 5733 5731 5729 5727 5726 5725 5724 5724 5723 5723 5722 5722 5723 5723 5723 5723 5723 5724 5725 5727 5729 5731 5733 5735 5736 5737 5738 5739 5739 5740 5742 5743 5746 5748 5750 5751 5752 5753 5754 5753 5754 5755 5757 5759 5758 5757 5759 5760 5761 5761 5762 5762 5763 5763 5763 5763 5764 5765 5766 5766 5766 5765 5765 5766 5766 5766 5766
5764 5763 5762 5760 5759 5758 5757 5755 5753 5751 5749 5747 5745 5743 5741 5738 5736 5733 5731 5729 5728 5726 5725 5724 5724 5723 5722 5721 5721 5721 5721 5721 5722 5722 5722 5723 5724 5725 5727 5729 5731 5732 5733 5734 5735 5735 5736 5737 5738 5740 5742 5744 5746 5747 5749 5751 5751 5750 5750 5751 5752 5754 5755 5755 5756 5757 5757 5758 5759 5759 5760 5760 5760 5760 5761 5762 5762 5762 5762 5762 5762 5762 5762 5762 5762
5761 5760 5759 5758 5757 5755 5754 5752 5751 5749 5747 5745 5743 5741 5739 5736 5734 5732 5730 5728 5726 5725 5723 5722 5722 5722 5721 5720 5719 5720 5720 5720 5720 5720 5720 5721 5722 5723 5725 5726 5727 5729 5730 5731 5732 5732 5733 5733 5735 5737 5739 5741 5743 5744 5745 5747 5747 5746 5746 5748 5748 5750 5752 5753 5753 5754 5754 5754 5755 5756 5756 5757 5757 5757 5758 5758 5758 5758 5758 5758 5758 5758 5758 5758 5759
5758 5757 5756 5755 5754 5753 5751 5750 5748 5747 5745 5743 5741 5739 5737 5735 5732 5730 5728 5726 5724 5723 5722 5720 5719 5719 5719 5718 5717 5717 5718 5717 5717 5718 5718 5719 5720 5722 5723 5724 5724 5725 5727 5728 5728 5729 5730 5730 5732 5734 5735 5737 5739 5740 5742 5743 5743 5743 5743 5744 5745 5747 5748 5749 5750 5750 5750 5751 5751 5752 5753 5753 5754 5754 5754 5755 5755 5755 5754 5754 5755 5755 5754 5755 5755
5755 5754 5753 5752 5751 5750 5749 5747 5746 5744 5743 5741 5739 5737 5735 5732 5730 5728 5726 5724 5722 5720 5719 5718 5717 5717 5717 5716 5716 5716 5715 5715 5715 5716 5716 5717 5718 5719 5720 5721 5721 5722 5723 5724 5725 5726 5727 5728 5730 5731 5732 5734 5736 5737 5738 5739 5739 5739 5740 5740 5742 5743 5744 5744 5745 5746 5746 5747 5748 5748 5749 5750 5750 5750 5751 5751 5751 5751 5751 5751 5751 5751 5750 5750 5750
5752 5751 5750 5749 5748 5747 5746 5745 5743 5742 5741 5739 5737 5735 5733 5731 5728 5726 5724 5722 5720 5718 5717 5716 5715 5715 5714 5714 5715 5714 5714 5714 5714 5714 5714 5715 5715 5716 5717 5717 5718 5719 5720 5721 5722 5723 5724 5725 5727 5728 5729 5730 5732 5733 5734 5734 5734 5735 5736 5737 5739 5739 5739 5740 5741 5741 5742 5743 5744 5744 5745 5746 5746 5746 5746 5746 5747 5747 5747 5747 5746 5746 5746 5746 5746
5749 5748 5747 5746 5745 5744 5743 5742 5741 5739 5738 5736 5735 5733 5731 5729 5727 5725 5722 5720 5719 5717 5715 5714 5713 5713 5712 5712 5712 5712 5712 5712 5712 5711 5712 5712 5713 5713 5714 5714 5715 5716 5717 5718 5719 5720 5721 5722 5723 5724 5725 5727 5728 5728 5729 5730 5730 5731 5733 5734 5734 5734 5734 5735 5736 5737 5738 5739 5740 5741 5741 5742 5742 5742 5742 5742 5742 5742 5742 5742 5742 5742 5742 5742 5742
5746 5745 5744 5743 5742 5741 5741 5739 5738 5737 5736 5734 5733 5731 5729 5727 5725 5723 5721 5719 5717 5716 5714 5713 5712 5711 5710 5709 5709 5709 5709 5709 5709 5709 5709 5710 5710 5711 5711 5711 5712 5713 5714 5715 5716 5717 5718 5719 5720 5721 5722 5723 5724 5725 5725 5726 5727 5728 5729 5729 5729 5729 5730 5731 5732 5732 5734 5735 5735 5736 5736 5737 5737 5737 5737 5737 5737 5738 5738 5738 5738 5738 5738 5738 5737
5743 5742 5741 5740 5739 5739 5738 5736 5735 5734 5733 5732 5730 5729 5727 5725 5724 5721 5719 5717 5715 5714 5713 5711 5710 5709 5708 5707 5707 5707 5707 5706 5706 5707 5707 5708 5708 5708 5709 5709 5709 5710 5711 5712 5712 5713 5714 5715 5716 5717 5718 5720 5720 5721 5722 5722 5722 5723 5724 5725 5725 5725 5726 5727 5728 5729 5730 5730 5731 5731 5731 5731 5732 5732 5732 5732 5733 5733 5733 5734 5734 5734 5733 5733 5732
5740 5739 5738 5737 5737 5736 5735 5734 5732 5731 5730 5729 5728 5726 5725 5723 5721 5720 5718 5716 5714 5712 5711 5710 5708 5707 5706 5705 5704 5704 5704 5704 5704 5705 5705 5705 5706 5706 5706 5706 5707 5707 5708 5708 5709 5710 5711 5711 5712 5714 5715 5716 5717 5717 5718 5718 5718 5719 5720 5720 5721 5721 5722 5723 5723 5724 5725 5725 5725 5725 5726 5726 5727 5727 5727 5728 5728 5728 5729 5729 5729 5728 5728 5727 5727
5737 5736 5735 5734 5734 5733 5732 5731 5730 5728 5727 5726 5725 5724 5722 5721 5719 5718 5716 5714 5712 5711 5709 5708 5707 5705 5704 5703 5702 5702 5702 5702 5702 5702 5702 5703 5703 5703 5703 5704 5704 5704 5705 5705 5706 5707 5708 5709 5709 5710 5711 5712 5713 5714 5714 5714 5714 5715 5715 5716 5716 5717 5718 5719 5719 5719 5720 5720 5720 5720 5721 5722 5722 5722 5723 5723 5723 5723 5723 5723 5723 5723 5722 5722 5722
5734 5733 5732 5732 5730 5730 5729 5728 5727 5725 5724 5723 5722 5721 5720 5719 5717 5716 5714 5712 5711 5709 5708 5706 5705 5703 5702 5700 5700 5699 5699 5699 5699 5699 5700 5700 5700 5701 5701 5701 5701 5701 5701 5702 5703 5704 5704 5705 5706 5706 5707 5708 5709 5709 5710 5710 5710 5711 5711 5711 5712 5713 5713 5714 5714 5714 5714 5715 5716 5716 5716 5717 5717 5717 5717 5718 5718 5718 5718 5718 5717 5717 5717 5716 5716
5730 5730 5729 5728 5727 5726 5726 5725 5724 5723 5721 5720 5719 5718 5717 5716 5715 5713 5712 5711 5709 5708 5706 5705 5703 5702 5700 5699 5698 5698 5697 5697 5697 5697 5697 5697 5697 5698 5698 5698 5698 5698 5698 5699 5699 5700 5701 5701 5702 5702 5703 5704 5705 5706 5706 5706 5707 5707 5707 5707 5708 5709 5708 5708 5708 5709 5710 5711 5711 5711 5711 5712 5712 5712 5712 5712 5712 5712 5712 5712 5712 5711 5711 5711 5710
5727 5726 5725 5725 5724 5723 5722 5722 5721 5720 5719 5718 5717 5716 5715 5714 5713 5711 5710 5708 5707 5706 5705 5704 5702 5701 5699 5698 5697 5696 5696 5696 5695 5695 5694 5695 5695 5695 5695 5695 5695 5695 5695 5696 5696 5697 5697 5697 5698 5698 5699 5700 5701 5702 5702 5703 5703 5703 5702 5703 5704 5704 5703 5703 5704 5705 5706 5706 5706 5706 5707 5707 5707 5707 5707 5707 5707 5707 5707 5707 5707 5706 5706 5705 5705
5724 5723 5722 5721 5721 5720 5719 5719 5718 5717 5716 5715 5714 5714 5713 5712 5711 5709 5708 5706 5705 5704 5703 5702 5701 5699 5698 5697 5696 5695 5694 5694 5693 5692 5692 5692 5692 5692 5692 5692 5692 5692 5692 5692 5693 5693 5693 5694 5694 5695 5696 5696 5697 5698 5698 5699 5699 5698 5698 5699 5699 5699 5700 5699 5700 5701 5701 5702 5702 5702 5702 5702 5702 5702 5702 5702 5702 5702 5702 5702 5702 5701 5701 5701 5700
5720 5719 5719 5718 5717 5717 5716 5716 5715 5714 5713 5712 5712 5711 5710 5709 5708 5707 5706 5704 5703 5702 5701 5700 5699 5698 5696 5695 5695 5694 5693 5692 5691 5691 5690 5690 5689 5689 5690 5689 5689 5689 5689 5689 5689 5690 5690 5690 5691 5691 5692 5693 5693 5694 5694 5695 5695 5694 5695 5696 5695 5695 5696 5695 5695 5696 5697 5697 5697 5697 5697 5697 5698 5697 5697 5697 5697 5697 5697 5697 5697 5696 5696 5695 5695
5717 5717 5716 5715 5714 5714 5713 5712 5712 5711 5710 5710 5709 5708 5708 5707 5706 5705 5703 5702 5701 5700 5698 5698 5697 5696 5695 5694 5693 5692 5691 5690 5689 5689 5688 5687 5687 5687 5687 5687 5687 5687 5686 5686 5687 5687 5687 5687 5687 5687 5688 5688 5689 5690 5690 5691 5691 5690 5691 5692 5691 5691 5690 5690 5690 5691 5692 5692 5692 5692 5692 5693 5693 5692 5692 5692 5692 5692 5692 5692 5691 5691 5691 5690 5689
5714 5714 5713 5712 5712 5711 5710 5709 5709 5708 5707 5707 5706 5705 5705 5704 5703 5702 5701 5700 5699 5697 5696 5695 5695 5694 5693 5692 5691 5690 5689 5688 5687 5687 5686 5685 5684 5684 5684 5684 5684 5684 5684 5684 5684 5684 5684 5684 5684 5684 5684 5685 5686 5686 5687 5688 5688 5687 5687 5687 5687 5686 5686 5686 5686 5687 5687 5687 5687 5687 5688 5688 5688 5687 5687 5687 5687 5687 5687 5687 5686 5686 5685 5685 5684